This demonstration page uses our WeatherBlox Daily Observations layout. Learn more.

Left ArrowRight Arrow

39.51506, -84.39828

Hourly Observations for January 28, 2019

Temp ( °F °C ) Dew Point ( °F °C ) Humidity (%) Winds ( mph kmh ) Pressure ( in mb ) Visibility ( mi km ) Precip ( " mm )
12:15 am 00:15 Cloudy 20 -6.7 10 -12.4 64 64 Calm 30.11 1020 10 16 0.00 0.00
12:35 am 00:35 Cloudy 20 -6.6 10 -12.1 65 65 NE 5 7 30.11 1020 10 16 0.00 0.00
12:55 am 00:55 Cloudy 20 -6.6 11 -11.8 67 67 NE 3 6 30.10 1019 10 16 0.00 0.00
1:15 am 01:15 Cloudy 20 -6.5 11 -11.6 67 67 E 6 9 30.07 1018 10 16 0.00 0.00
1:35 am 01:35 Cloudy 21 -6.3 12 -11.2 69 69 ESE 5 7 30.06 1018 10 16 0.00 0.00
1:55 am 01:55 Cloudy 21 -6 13 -10.7 70 70 Calm 30.04 1017 10 16 0.00 0.00
2:15 am 02:15 Cloudy 22 -5.5 13 -10.6 68 68 SE 7 11 30.03 1017 10 16 0.00 0.00
2:35 am 02:35 Cloudy 22 -5.4 13 -10.6 67 67 SE 3 6 30.02 1017 10 16 0.00 0.00
2:55 am 02:55 Cloudy 23 -5.2 13 -10.5 67 67 SSE 3 6 30.02 1017 10 16 0.00 0.00
3:15 am 03:15 Cloudy 23 -4.9 13 -10.4 66 66 SSE 6 9 30.02 1017 10 16 0.00 0.00
3:35 am 03:35 Cloudy 23 -4.9 14 -10.1 67 67 SE 6 9 30.02 1017 10 16 0.00 0.00
3:55 am 03:55 Cloudy 23 -4.8 14 -9.8 68 68 Calm 30.01 1016 10 16 0.00 0.00
4:15 am 04:15 Cloudy 24 -4.6 15 -9.6 68 68 E 3 6 30.01 1016 10 16 0.00 0.00
4:35 am 04:35 Cloudy 24 -4.4 16 -9.1 70 70 E 3 6 30.00 1016 10 16 0.00 0.00
4:55 am 04:55 Cloudy 24 -4.2 16 -8.7 71 71 E 5 7 29.99 1015 10 16 0.00 0.00
5:15 am 05:15 Cloudy 25 -4.1 17 -8.4 72 72 Calm 29.98 1015 10 16 0.00 0.00
5:35 am 05:35 Cloudy 25 -3.9 17 -8.2 72 72 SE 7 11 29.97 1015 10 16 0.00 0.00
5:55 am 05:55 Cloudy 25 -3.7 18 -8 72 72 SE 5 7 29.96 1014 10 16 0.00 0.00
6:15 am 06:15 Cloudy 26 -3.5 18 -7.8 72 72 SE 6 9 29.95 1014 10 16 0.00 0.00
6:35 am 06:35 Cloudy 26 -3.4 18 -7.7 72 72 SE 7 11 29.94 1014 10 16 0.00 0.00
6:55 am 06:55 Cloudy 26 -3.3 19 -7.5 73 73 SE 8 13 29.93 1014 10 16 0.00 0.00
7:15 am 07:15 Cloudy 26 -3.1 19 -7.2 74 74 SE 8 13 29.92 1013 10 16 0.00 0.00
7:35 am 07:35 Cloudy 27 -2.9 19 -7 74 74 SSE 7 11 29.93 1014 10 16 0.00 0.00
7:55 am 07:55 Cloudy 28 -2.5 20 -6.5 74 74 SE 8 13 29.91 1013 10 16 0.00 0.00
8:15 am 08:15 Cloudy 29 -1.9 21 -6 74 74 SSE 7 11 29.91 1013 10 16 0.00 0.00
8:35 am 08:35 Cloudy 29 -1.7 21 -5.9 73 73 SE 6 9 29.90 1013 10 16 0.00 0.00
8:55 am 08:55 Cloudy 30 -1.2 22 -5.6 72 72 S 9 15 29.89 1012 10 16 0.00 0.00
9:15 am 09:15 Cloudy 31 -0.8 22 -5.6 70 70 S 12 19 29.89 1012 10 16 0.00 0.00
9:35 am 09:35 Cloudy 31 -0.5 22 -5.3 70 70 SSE 9 15 29.87 1011 10 16 0.00 0.00
9:55 am 09:55 Cloudy 33 0.3 23 -4.9 68 68 S 10 17 29.85 1011 10 16 0.00 0.00
10:15 am 10:15 Cloudy 34 1.1 24 -4.2 68 68 S 9 15 29.84 1011 10 16 0.00 0.00
10:35 am 10:35 Partly Cloudy 37 2.9 26 -3.2 65 65 S 14 22 29.83 1010 10 16 0.00 0.00
10:55 am 10:55 Cloudy 38 3.6 27 -2.9 63 63 S 13 20 29.82 1010 10 16 0.00 0.00
11:15 am 11:15 Cloudy 40 4.4 28 -2.5 61 61 S 15 24 29.80 1009 10 16 0.00 0.00
11:35 am 11:35 Cloudy 40 4.5 28 -2.4 61 61 S 18 30 29.80 1009 10 16 0.00 0.00
11:55 am 11:55 Cloudy 40 4.4 28 -2.3 62 62 S 13 20 29.79 1009 10 16 0.00 0.00
12:15 pm 12:15 Cloudy 41 4.8 28 -2 62 62 S 12 19 29.77 1008 10 16 0.00 0.00
12:35 pm 12:35 Cloudy 41 5.1 29 -1.8 61 61 S 10 17 29.75 1007 10 16 0.00 0.00
12:55 pm 12:55 Cloudy 42 5.4 29 -1.5 61 61 S 13 20 29.73 1007 10 16 0.00 0.00
1:15 pm 13:15 Cloudy 43 6.3 30 -1.2 59 59 S 15 24 29.72 1006 10 16 0.00 0.00
1:35 pm 13:35 Cloudy 45 7.1 31 -0.8 58 58 S 16 26 29.71 1006 10 16 0.00 0.00
1:55 pm 13:55 Cloudy 45 7.4 31 -0.7 57 57 S 16 26 29.70 1006 10 16 0.00 0.00
2:15 pm 14:15 Cloudy 47 8.1 32 -0.2 56 56 S 18 30 29.67 1005 10 16 0.00 0.00
2:35 pm 14:35 Cloudy 47 8.6 32 0.1 55 55 S 21 33 29.67 1005 10 16 0.00 0.00
2:55 pm 14:55 Cloudy 48 8.8 32 0.1 55 55 SSW 20 31 29.66 1004 10 16 0.00 0.00
3:15 pm 15:15 Cloudy 48 9 33 0.3 55 55 S 18 30 29.66 1004 10 16 0.00 0.00
3:35 pm 15:35 Cloudy 49 9.2 32 0.2 54 54 SSW 17 28 29.66 1004 10 16 0.00 0.00
3:55 pm 15:55 Cloudy 49 9.5 32 0.1 52 52 SSW 18 30 29.66 1004 10 16 0.00 0.00
4:15 pm 16:15 Cloudy 49 9.7 32 0.1 52 52 SSW 23 37 29.66 1004 10 16 0.00 0.00
4:35 pm 16:35 Cloudy 48 9.1 33 0.8 56 56 SW 24 39 29.66 1004 10 16 0.00 0.00
4:55 pm 16:55 Cloudy 47 8.5 35 1.5 62 62 SW 20 31 29.67 1005 10 16 0.00 0.00
5:15 pm 17:15 Cloudy with Drizzle 46 7.7 36 2.1 68 68 SW 14 22 29.68 1005 10 16 0.00 0.00
5:35 pm 17:35 Cloudy with Light Rain 45 7 37 2.8 75 75 SW 15 24 29.69 1005 7 11 0.00 0.00
5:55 pm 17:55 Cloudy with Light Rain 45 7.1 37 2.5 73 73 SW 15 24 29.70 1006 10 16 0.00 0.00
6:15 pm 18:15 Cloudy with Light Rain 44 6.8 36 2.4 74 74 WSW 14 22 29.71 1006 10 16 0.00 0.00
6:35 pm 18:35 Cloudy with Light Rain 43 6.3 37 2.6 77 77 WSW 15 24 29.71 1006 10 16 0.00 0.00
7:15 pm 19:15 Cloudy 42 5.7 37 2.6 81 81 SW 12 19 29.72 1006 10 16 0.00 0.00
7:35 pm 19:35 Cloudy 42 5.4 36 2.4 81 81 SW 16 26 29.72 1006 10 16 0.00 0.00
7:55 pm 19:55 Cloudy with Light Rain 41 5.1 36 2.3 82 82 SW 14 22 29.73 1007 10 16 0.00 0.00
8:15 pm 20:15 Cloudy with Light Rain 41 4.8 36 2.2 83 83 WSW 8 13 29.73 1007 10 16 0.00 0.00
8:35 pm 20:35 Cloudy with Light Rain 39 4.1 36 2.4 89 89 WSW 9 15 29.74 1007 5 8 0.00 0.00
8:55 pm 20:55 Cloudy with Light Rain 35 1.5 31 -0.6 86 86 W 21 33 29.78 1008 5 8 0.00 0.00
9:15 pm 21:15 Cloudy with Light Rain 33 0.5 29 -1.9 84 84 W 23 37 29.79 1009 10 16 0.00 0.00
9:35 pm 21:35 Cloudy 32 -0.1 27 -2.6 83 83 W 22 35 29.81 1009 10 16 0.00 0.00
9:55 pm 21:55 Cloudy 30 -1.1 25 -4 81 81 W 15 24 29.84 1010 10 16 0.00 0.00
10:15 pm 22:15 Cloudy 29 -1.6 23 -5.1 77 77 W 24 39 29.86 1011 10 16 0.00 0.00
10:35 pm 22:35 Cloudy 28 -2.4 21 -6.2 75 75 W 22 35 29.87 1012 10 16 0.00 0.00
10:55 pm 22:55 Cloudy 27 -3 19 -7.2 73 73 W 18 30 29.89 1012 10 16 0.00 0.00
11:15 pm 23:15 Cloudy 25 -3.8 17 -8.5 70 70 W 23 37 29.92 1013 10 16 0.00 0.00
11:35 pm 23:35 Cloudy 24 -4.5 15 -9.7 67 67 W 20 31 29.93 1013 10 16 0.00 0.00
11:55 pm 23:55 Windy with Snow Likely 23 -5.1 14 -10 69 69 WSW 20 31 29.94 1014 10 16 0.00 0.00

Powered by AerisWeather